Tracking 18945 objects as of 20-Jan-2018
HD Live streaming from Space Station
objects crossing your sky now

FENGYUN 1C DEB

Track FENGYUN 1C DEB now!
10-day predictions


NORAD ID: 30903
Int'l Code: 1999-025AYR
Perigee: 842.5 km
Apogee: 983.5 km
Inclination: 99.4 °
Period: 103.1 minutes
Semi major axis: 7284 km
RCS: 0.016 m2 (small)
Launch date: May 10, 1999
Source: People's Republic of China (PRC)
Launch site: Taiyaun Space Center, China (TSC)

Note: This is SATELLITE DEBRIS
aabbcc
Your satellite tracking list
Your tracking list is empty




NASA's NSSDC Master Catalog

Two Line Element Set (TLE):
1 30903U 99025AYR 18020.14510929  .00000084  00000-0  91139-4 0  9991
2 30903  99.3613 147.4481 0096795 346.5557  13.3028 13.96512405556096
Source of the keplerian elements: AFSPC